Regional Weather Roundup
Issued by NWS Sterling, VA

Home | Current Version | Previous Version | Text Only | Print | Product List | Glossary Off
Versions: 1 2 3 4 5 6 7 8 9 10 11 12 13 14 15 16 17 18 19 20 21 22 23 24 25 26 27 28 29 30 31 32 33 34 35 36 37 38 39 40 41 42 43 44 45 46 47 48 49 50

000
ASUS41 KLWX 201210
RWRLWX

REGIONAL WEATHER ROUNDUP
NATIONAL WEATHER SERVICE BALTIMORE MD/WASHINGTON DC
700 AM EST SAT DEC 20 2014

Note: "FAIR" indicates few or no clouds below 12,000 feet
with no significant weather and/or obstructions to visibility.
 TC=TEMPERATURE CELSIUS

 * =Non NWS site. Station does not report precipitation (e.g. rain,
    snow, etc.), thunder, or fog.

DCZ001-MDZ009-015-VAZ040>042-051-053>054-201300-
WASHINGTON METRO

CITY           SKY/WX    TMP DP  RH WIND       PRES   REMARKS
WASHINGTON NAT MOCLDY    31  20  63 N6        30.31R
DULLES         PTCLDY    24  19  81 NW5       30.30R
ANDREWS AFB    CLEAR     23  18  81 N5        30.28R
FT BELVOIR     CLEAR     21  19  91 CALM      30.31R
QUANTICO       CLEAR     25  21  85 NW5       30.33R
COLLEGE PARK*  CLEAR     25  23  93 CALM      30.30R
LEESBURG*      PTCLDY    30  23  74 CALM      30.30R
GAITHERSBURG*  CLEAR     21  18  86 CALM      30.32R

$$

MDZ006>007-011-014-201300-
BALTIMORE METRO

CITY           SKY/WX    TMP DP  RH WIND       PRES   REMARKS
BWI AIRPORT    MOCLDY    25  19  78 CALM      30.29R
MD SCIENCE CTR   N/A     31  19  61 MISG      30.29R
MARTIN STATE   PTCLDY    27  21  80 W5        30.31R
ANNAPOLIS      CLEAR     30  21  69 NW5       30.30R
FORT MEADE*    CLEAR     21  19  93 CALM      30.32R

$$

MDZ012-015-019>023-201300-
MARYLAND EASTERN SHORE

CITY           SKY/WX    TMP DP  RH WIND       PRES   REMARKS
OCEAN CITY     CLEAR     23  20  88 N5        30.27R
SALISBURY      CLEAR     26  21  81 SW3       30.28R
BAY BRIDGE AP*   N/A     32  23  69 NW7       30.29R
CAMBRIDGE*     CLEAR     32  27  80 CALM      30.28R
EASTON*        CLEAR     30  25  80 N3        30.31R

$$

MDZ017>025-201300-
SOUTHERN MARYLAND

CITY           SKY/WX    TMP DP  RH WIND       PRES   REMARKS
PATUXENT RIVER CLEAR     31  21  66 NW12      30.30R WCI  22
ST INIGOES     CLEAR     29  20  69 CALM      30.30R
LEONARDTOWN*   CLEAR     23  19  86 CALM      30.32R

$$

MDZ003>005-201300-
NORTH CENTRAL MARYLAND

CITY           SKY/WX    TMP DP  RH WIND       PRES   REMARKS
FREDERICK*     CLEAR     21  18  86 CALM      30.32R
HAGERSTOWN APT CLEAR     25  17  72 CALM      30.28R
WESTMINSTER*   PTCLDY    25  19  80 NW3       30.26R

$$

MDZ501>502-201300-
WESTERN MARYLAND

CITY           SKY/WX    TMP DP  RH WIND       PRES   REMARKS
OAKLAND*       MOCLDY    19 N/A N/A CALM      30.13F
CUMBERLAND*    MOCLDY    28  21  74 CALM      30.31S

$$

VAZ025>031-201300-
SHENANDOAH VALLEY

CITY           SKY/WX    TMP DP  RH WIND       PRES   REMARKS
WINCHESTER*    MOCLDY    23  18  80 CALM      30.28R
FRONT ROYAL*   FAIR      23  21  93 CALM      30.27R
LURAY*         FAIR      23  23 100 CALM      30.26S
NEW MARKET*    FAIR      21  19  92 CALM      30.26R
STAUNTON*      CLOUDY    23  20  88 CALM      30.27R
WAYNESBORO*    FAIR      23  20  89 CALM      30.22S

$$

WVZ021-048>050-054>055-201300-
EASTERN WEST VIRGINIA PANHANDLE

CITY           SKY/WX    TMP DP  RH WIND       PRES   REMARKS
MARTINSBURG    PTCLDY    21  15  78 CALM      30.28S
PETERSBURG*    CLOUDY    22  21  95 CALM      30.28R

$$

VAZ036>039-050-201300-
CENTRAL FOOTHILLS

CITY           SKY/WX    TMP DP  RH WIND       PRES   REMARKS
CHARLOTTESVILL CLOUDY    27  22  81 SW3       30.27R
CULPEPER*      MOCLDY    21  19  93 CALM      30.29S
ORANGE*        CLOUDY    25  23  93 CALM      30.30R
GORDONSVILLE*  FAIR      23  21  92 CALM      30.28S
WARRENTON*     FAIR      22  22 100 CALM      30.29R

$$

VAZ055>057-201300-
NORTH AND CENTRAL PIEDMONT

CITY           SKY/WX    TMP DP  RH WIND       PRES   REMARKS
FREDERICKSBRG* PTCLDY    25  23  91 CALM      30.31R
STAFFORD*      PTCLDY    21  21 100 CALM      30.35R

$$

NCZ024-NYZ072-PAZ021-071-VAZ022-071-201300-
OTHER REGIONAL OBSERVATIONS

CITY           SKY/WX    TMP DP  RH WIND       PRES   REMARKS
NEW YORK CITY  CLOUDY    31  19  61 VRB6      30.28R
PHILADELPHIA   CLOUDY    33  22  63 N9        30.27R WCI  25
PITTSBURGH     CLOUDY    27  20  75 N7        30.26F
ROANOKE        CLOUDY    31  23  72 E3        30.27R
RICHMOND       CLOUDY    32  23  69 CALM      30.30R
RALEIGH        CLOUDY    35  25  66 NE7       30.29R

$$

ANZ530>537-201300-
MARINE OBSERVATIONS

STATION/POSITION TIME  TEMP    WIND        PRES
                       AIR SEA DIR/SP/G
                 (UTC) (F)     (DEG/KT/KT) (MB)
THOMAS PT LIGHT  1200   30 40  320/  9/ 10 1026.9R
BALT KEY BRIDGE  1200   32     300/ 11/ 12 1025.5R
COVE POINT       1200   33     350/ 13/ 16 1025.5R
LEWISETTA        1200   33 41  340/  5/  6 1025.8F
SOLOMONS ISLAND  1200      42                N/A

$$



USA.gov is the U.S. government's official web portal to all federal, state and local government web resources and services.